Regional Weather Roundup
Issued by NWS

Home | Current Version | Previous Version | Graphics & Text | Print | Product List | Glossary On
Versions: 1 2 3 4 5 6 7 8 9 10 11 12 13 14 15 16 17 18 19 20 21 22 23 24 25 26 27 28 29 30 31 32 33 34 35 36 37 38 39 40 41 42 43 44 45 46 47 48 49 50
000
ASUS43 KDMX 071307
RWRIA

WEATHER ROUNDUP FOR IOWA
NATIONAL WEATHER SERVICE DES MOINES IA
800 AM CDT TUE JUL 07 2015

NOTE: "FAIR" INDICATES FEW OR NO CLOUDS BELOW 12,000 FEET WITH NO
SIGNIFICANT WEATHER AND/OR OBSTRUCTIONS TO VISIBILITY.

* - THESE STATIONS ARE NOT NWS STATIONS...THUS NOT UNDER NWS
QUALITY CONTROL.  THEY ALSO DO NOT REPORT WEATHER SUCH
AS PRECIPITATION OR FOG.

IAZ001>003-012>014-020>022-031>034-043>046-071400-
   NORTHWEST IOWA

CITY           SKY/WX    TMP DP  RH WIND       PRES   REMARKS
CARROLL *      SUNNY     55  50  82 N13G18    30.14R
CHEROKEE *     SUNNY     55  50  82 N6        30.17R
DENISON *      SUNNY     55  48  76 N12       30.14R
LE MARS *      SUNNY     55  52  88 N6        30.19S
ORANGE CITY *  SUNNY     54  48  82 NE8       30.18R
SHELDON *      SUNNY     54  54 100 N7        30.18R
SIOUX CITY     SUNNY     59  50  72 N7        30.18R
SPENCER        SUNNY     56  48  74 N8        30.17R
STORM LAKE *   SUNNY     55  50  82 N14       30.17R
$$

IAZ055>058-069>071-079>083-090>094-071400-
   SOUTHWEST IOWA

CITY           SKY/WX    TMP DP  RH WIND       PRES   REMARKS
ATLANTIC *     SUNNY     57  50  77 N10       30.13S
AUDUBON *      SUNNY     57  48  72 N12G18    30.15R
CLARINDA *     SUNNY     59  52  77 N14G22    30.12R
COUNCIL BLFS * SUNNY     57  50  77 N12       30.16R
CRESTON *      SUNNY     57  52  82 N14       30.09S
HARLAN  *      SUNNY     57  54  88 N12G17    30.18R
LAMONI         MOSUNNY   60  54  80 N14       30.06S
RED OAK *      SUNNY     59  50  72 N13G21    30.13R
SHENANDOAH *   SUNNY     59  50  72 N13G20    30.12S
$$

IAZ047>049-059>061-072>074-084-071400-
   CENTRAL IOWA

CITY           SKY/WX    TMP DP  RH WIND       PRES   REMARKS
AMES           SUNNY     57  50  77 N15       30.10R
ANKENY *       SUNNY     59  52  77 N12G18    30.09R
CHARITON *     SUNNY     59  55  88 N12G17    30.07R
DES MOINES     MOSUNNY   60  51  72 N15G21    30.08R
GRINNELL*      SUNNY     57  52  82 N13       30.07R
KNOXVILLE *    SUNNY     59  54  82 N10G16    30.06R
MARSHALLTOWN   SUNNY     58  52  80 N14       30.09R
PELLA *        SUNNY     59  57  94 N8        30.08R
PERRY *          N/A     57  50  77 N10       30.12R
$$

IAZ004>006-015-016-023>025-035-036-071400-
   NORTH CENTRAL IOWA

CITY           SKY/WX    TMP DP  RH WIND       PRES   REMARKS
ALGONA *       SUNNY     55  50  82 N10G17    30.16R
CLARION *      SUNNY     55  50  82 N10       30.13R
ESTHERVILLE    SUNNY     54  49  83 N10       30.16R
FORT DODGE *   SUNNY     55  48  76 N9        30.15R
MASON CITY     SUNNY     57  51  80 N13       30.14R
FOREST CITY *  SUNNY     54  50  87 N8        30.14R
IOWA FALLS *     N/A     57  50  77 N13G18    30.12R
$$

IAZ007>011-017>019-026>030-037>042-050>054-066-071400-
   NORTHEAST IOWA

CITY           SKY/WX    TMP DP  RH WIND       PRES   REMARKS
CEDAR RAPIDS   MOSUNNY   61  58  90 N13       30.03R FOG
CHARLES CITY * SUNNY     57  52  82 N14       30.11R
CLINTON *      SUNNY     61  55  82 N9        30.02R
DECORAH *        N/A    N/A N/A N/A MISG        N/A
DUBUQUE        CLOUDY    58  54  86 N14       30.03R FOG
MONTICELLO *   SUNNY     61  59  94 N7G14     30.03R FOG
OELWEIN *        N/A     57  54  88 N15       30.07R
WATERLOO       SUNNY     58  51  78 N14       30.07R
$$

IAZ064-065-067-068-078-071400-
   EAST CENTRAL IOWA

CITY           SKY/WX    TMP DP  RH WIND       PRES   REMARKS
DAVENPORT      CLOUDY    61  57  87 N10       30.01R FOG
IOWA CITY      SUNNY     63  56  78 N13       30.04R HAZE
MT. PLEASANT *   N/A     64  55  72 N5        30.00S HAZE
MUSCATINE *    SUNNY     64  57  77 N13       30.01R HAZE
QUAD CITIES    CLOUDY    63  57  81 N7        29.99R HAZE
$$

IAZ062-063-075>077-085>089-095>099-071400-
   SOUTHEAST IOWA

CITY           SKY/WX    TMP DP  RH WIND       PRES   REMARKS
BURLINGTON     CLOUDY    63  59  87 N12       29.98S FOG
FAIRFIELD *    SUNNY     63  57  82 N13       30.03R HAZE
FORT MADISON * MOSUNNY   63  61  94 N10       29.99S FOG
KEOKUK *       CLOUDY    64  61  88 N14       29.98R FOG
OSKALOOSA *      N/A     61  57  88 N8        30.05S FOG
CENTERVILLE *  MOSUNNY   63  59  88 N15       30.05R
OTTUMWA        MOSUNNY   62  58  86 N14       30.03R FOG
WASHINGTON *   SUNNY     63  59  88 N14       30.04R HAZE
$$

ABBREVIATIONS USED IN REMARKS
   TC - TEMPERATURES IN CELSIUS
  WCI - WIND CHILL INDEX
   HX - HEAT INDEX
  VSB - VISIBILITY
$$




USA.gov is the U.S. government's official web portal to all federal, state and local government web resources and services.